Location: Warwick
(41.7000°N, 71.4170°W)
Time: 17:42:58
(UTC-05:00)

BREEZE-M DEB (TANK) - Visible Passes

Search period start: 20 November 2014 00:00
Search period end: 30 November 2014 00:00
Orbit: 289 x 16025 km, 49.5° (Epoch: 19 November)

Date Brightness Start Highest point End Pass type
(mag) Time Alt. Az. Time Alt. Az. Time Alt. Az.
20 Nov 8.6 14:16:52 10° W 15:25:36 79° N 17:50:08 10° ESE visible
20 Nov 8.5 19:48:05 10° NW 21:32:59 41° W 22:49:13 10° SSW visible
21 Nov 8.6 14:31:39 10° W 15:50:05 80° NNE 18:05:25 10° SE visible
21 Nov 8.5 20:05:03 10° NW 21:43:50 37° W 23:00:04 10° SW visible
22 Nov 8.5 14:46:30 10° W 16:14:24 82° NNE 18:20:23 10° SE visible
22 Nov 8.6 20:22:20 10° NW 21:54:23 32° W 23:10:02 10° SW visible
23 Nov 8.5 15:01:24 10° WNW 16:37:29 85° NE 18:35:04 10° SE visible
23 Nov 8.7 20:40:03 10° NW 22:04:41 28° WNW 23:18:48 10° WSW visible
24 Nov 8.5 15:16:21 10° WNW 16:58:51 88° NE 18:49:30 10° SE visible
24 Nov 8.9 20:58:23 10° NW 22:14:47 25° WNW 23:25:52 10° WSW visible
25 Nov 8.5 15:31:21 10° WNW 17:18:33 88° SW 19:03:40 10° SSE visible
25 Nov 9.0 21:17:39 10° NW 22:24:43 21° WNW 23:30:35 10° WSW visible
26 Nov 8.5 15:46:22 10° WNW 17:36:46 84° WSW 19:17:36 10° SSE visible
26 Nov 9.2 21:38:27 10° NW 22:34:29 17° WNW 23:31:54 10° W visible
27 Nov 8.5 16:01:26 10° WNW 17:53:44 80° WSW 19:31:17 10° SSE visible
27 Nov 9.4 22:02:18 10° NW 22:44:07 14° WNW 23:27:57 10° W visible
28 Nov 9.4 06:20:17 10° E 06:29:04 12° ENE 06:42:21 10° ENE visible
28 Nov 8.5 16:16:33 10° WNW 18:09:37 75° WSW 19:44:45 10° SSE visible
28 Nov 9.7 22:36:38 10° NW 22:53:38 11° WNW 23:11:07 10° WNW visible
29 Nov 8.5 16:31:41 10° WNW 18:24:34 71° WSW 19:57:58 10° S visible
